Location: Katwijk
(52.2000°N, 4.4170°E)
Time: 22:47:53
(UTC+02:00)

ISS - Visible Passes

Search period start: 29 March 2015 00:00
Search period end: 08 April 2015 01:00
Orbit: 396 x 406 km, 51.6° (Epoch: 29 March)

Date Brightness Start Highest point End Pass type
(mag) Time Alt. Az. Time Alt. Az. Time Alt. Az.
29 Mar -0.9 04:43:09 17° ESE 04:43:09 17° ESE 04:44:03 10° ESE visible
29 Mar -2.0 06:15:45 18° WSW 06:16:53 22° SSW 06:19:28 10° SSE visible
30 Mar -1.8 05:24:55 23° SSE 05:24:55 23° SSE 05:26:36 10° SE visible
31 Mar -1.2 06:06:55 12° SSW 06:06:55 12° SSW 06:07:47 10° S visible
04 Apr -1.0 22:24:00 10° SSW 22:24:38 14° SSW 22:24:38 14° SSW visible
05 Apr -1.8 21:31:04 10° SSW 21:33:28 19° SE 21:34:11 18° SE visible
05 Apr -0.7 23:06:14 10° WSW 23:06:48 14° WSW 23:06:48 14° WSW visible
06 Apr -3.0 22:12:47 10° SW 22:15:56 44° SSE 22:16:03 44° SSE visible
07 Apr -2.4 21:19:30 10° SW 21:22:24 31° SSE 21:25:02 12° E visible
07 Apr -2.4 22:55:18 10° WSW 22:57:37 42° WSW 22:57:37 42° WSW visible
